Spofford, NH (03462)

11:34 PM EST on January 19, 2017 (GMT -0500)
MC1492 | | Change Station

Elev 1098 ft 42.91 °N, 72.39 °W | Updated 1 hour ago

Overcast
Overcast
34.0 °F
Feels Like 34 °F
N
0.0
Wind Variable Wind from NNW

Today
High -- | Low -- °F
--% Chance of Precip.
Yesterday
High -- | Low -- °F
Precip. -- in
Pressure 30.00 in
Visibility 1.2 miles
Clouds Mostly Cloudy 100 ft
Overcast 2900 ft
Windchill 34 °F
Dew Point 33 °F
Humidity 97%
Rainfall 0.00 in
Snow Depth Not available.
7:15 AM 4:45 PM
Waning Gibbous, 48% visible
SPECI KEEN 200430Z AUTO 00000KT 1 1/4SM BR BKN001 OVC029 M02/M02 A3000 RMK AO2 FZRANO
Pressure 30.00 in
Visibility 1.2 miles
Clouds Mostly Cloudy 100 ft
Overcast 2900 ft
Windchill 34 °F
Dew Point 33 °F
Humidity 97%
Rainfall 0.00 in
Snow Depth Not available.
7:15 AM 4:45 PM
Waning Gibbous, 48% visible
SPECI KEEN 200430Z AUTO 00000KT 1 1/4SM BR BKN001 OVC029 M02/M02 A3000 RMK AO2 FZRANO

Get Your Daily Forecast Email!

Thanks for signing up!

Be on the lookout for a verification email in your inbox.

You'll start receiving the daily forecast at 8 AM.

×

10-Day Weather Forecast

Almanac

Astronomy

Jan. 19, 2017 Rise Set
Actual Time
Civil Twilight
Nautical Twilight
Astronomical Twilight
Moon
Length of Visible Light
Length of Day
Tomorrow will be .
, % of the Moon is Illuminated

Today's Extremes

State Highs State Lows

Community

WunderPhotos

Upload Photos

1,962,540 photos uploaded!

WunderBlog® & News

Nearby

Air Quality

  Air Quality AQ Index Pollutant
Not available.

Snow Depth

Station Depth Elevation

Earthquake Activity

City Distance Mag. Time & Date
Minimum magnitude displayed is 2.5.

Coastal Water Temperatures

Place Temperature

Stations

Nearby Weather Stations

Station Location Temp. Windchill Dew Point Humidity Wind Precip. Elev Updated Type
                   

Watches & Warnings

There are currently no watches in effect.